Location: St. Louis
(38.6270°N, 90.1994°W)
Time: 00:47:39
(UTC-05:00)

ISS - Pass Details

Date: 11 November 2013
Orbit: 402 x 404 km, 51.6° (Epoch: 02 July)

Event Time Altitude Azimuth Distance (km) Brightness Sun altitude
Exits shadow 05:45:13 10° 326° (NW) 1,453 -1.0 -10.8°
Maximum altitude 05:46:18 11° 345° (NNW) 1,379 -0.9 -10.6°
Drops below altitude 10° 05:47:25 10° 6° (N) 1,458 -0.6 -10.4°
Sets 05:50:46 0° 42° (NE) 2,325 0.9 -9.7°
